Time,TemperatureF,DewpointF,PressureIn,WindDirection,WindDirectionDegrees,WindSpeedMPH,WindSpeedGustMPH,Humidity,HourlyPrecipIn,Conditions,Clouds,dailyrainin,SolarRadiationWatts/m^2,SoftwareType,DateUTC
2015-03-05 00:01:00,36.9,34.8,29.85,West,279,0.0,-999.0,92,0.00,,,0.00,0,Wunderground v.1.15,2015-03-05 05:01:00,
2015-03-05 00:06:00,36.7,34.6,29.85,West,279,0.0,-999.0,92,0.06,,,0.01,0,Wunderground v.1.15,2015-03-05 05:06:00,
2015-03-05 00:12:00,36.6,34.5,29.85,West,277,0.0,-999.0,92,0.06,,,0.01,0,Wunderground v.1.15,2015-03-05 05:12:00,
2015-03-05 00:17:00,36.5,34.4,29.84,West,277,1.0,-999.0,92,0.04,,,0.01,0,Wunderground v.1.15,2015-03-05 05:17:00,
2015-03-05 00:22:00,36.5,34.4,29.84,West,278,1.0,-999.0,92,0.00,,,0.01,0,Wunderground v.1.15,2015-03-05 05:22:00,
2015-03-05 00:27:00,36.4,34.3,29.84,WNW,293,3.0,-999.0,92,0.00,,,0.01,0,Wunderground v.1.15,2015-03-05 05:27:00,
2015-03-05 00:32:00,36.5,34.4,29.84,SW,227,0.0,-999.0,92,0.00,,,0.01,0,Wunderground v.1.15,2015-03-05 05:32:00,
2015-03-05 00:38:00,36.4,34.3,29.84,West,273,0.0,-999.0,92,0.00,,,0.01,0,Wunderground v.1.15,2015-03-05 05:38:00,
2015-03-05 00:43:00,36.4,34.3,29.84,WNW,286,2.0,-999.0,92,0.00,,,0.01,0,Wunderground v.1.15,2015-03-05 05:43:00,
2015-03-05 00:48:00,36.4,34.3,29.84,NW,304,0.0,-999.0,92,0.00,,,0.01,0,Wunderground v.1.15,2015-03-05 05:48:00,
2015-03-05 00:53:00,36.4,34.3,29.84,WNW,298,0.0,-999.0,92,0.00,,,0.02,0,Wunderground v.1.15,2015-03-05 05:53:00,
2015-03-05 00:58:00,36.4,34.3,29.84,West,277,4.0,-999.0,92,0.00,,,0.02,0,Wunderground v.1.15,2015-03-05 05:58:00,
2015-03-05 01:04:00,36.3,34.2,29.84,NNW,342,1.0,-999.0,92,0.00,,,0.02,0,Wunderground v.1.15,2015-03-05 06:04:00,
2015-03-05 01:09:00,36.2,34.1,29.84,WNW,302,0.0,-999.0,92,0.00,,,0.02,0,Wunderground v.1.15,2015-03-05 06:09:00,
2015-03-05 01:14:00,36.2,34.1,29.84,WNW,300,3.0,-999.0,92,0.00,,,0.02,0,Wunderground v.1.15,2015-03-05 06:14:00,
2015-03-05 01:19:00,36.2,34.1,29.85,NNW,328,0.0,-999.0,92,0.00,,,0.03,0,Wunderground v.1.15,2015-03-05 06:19:00,
2015-03-05 01:24:00,36.0,33.6,29.85,NNE,13,0.0,-999.0,91,0.00,,,0.03,0,Wunderground v.1.15,2015-03-05 06:24:00,
2015-03-05 01:30:00,35.6,33.2,29.85,WNW,290,0.0,-999.0,91,0.06,,,0.04,0,Wunderground v.1.15,2015-03-05 06:30:00,
2015-03-05 01:35:00,35.3,32.9,29.85,North,351,0.0,-999.0,91,0.06,,,0.04,0,Wunderground v.1.15,2015-03-05 06:35:00,
2015-03-05 01:40:00,35.1,32.7,29.85,NW,315,8.0,-999.0,91,0.05,,,0.04,0,Wunderground v.1.15,2015-03-05 06:40:00,
2015-03-05 01:45:00,35.1,32.7,29.85,NW,309,0.0,-999.0,91,0.00,,,0.04,0,Wunderground v.1.15,2015-03-05 06:45:00,
2015-03-05 01:50:00,35.0,32.6,29.85,NNW,331,2.0,-999.0,91,0.00,,,0.05,0,Wunderground v.1.15,2015-03-05 06:50:00,
2015-03-05 01:56:00,34.8,32.4,29.85,West,261,8.0,-999.0,91,0.00,,,0.05,0,Wunderground v.1.15,2015-03-05 06:56:00,
2015-03-05 02:01:00,34.7,32.3,29.84,North,355,2.0,-999.0,91,0.00,,,0.05,0,Wunderground v.1.15,2015-03-05 07:01:00,
2015-03-05 02:06:00,34.5,32.4,29.85,NNW,337,3.0,-999.0,92,0.00,,,0.05,0,Wunderground v.1.15,2015-03-05 07:06:00,
2015-03-05 02:12:00,34.3,32.2,29.85,NW,304,1.0,-999.0,92,0.00,,,0.05,0,Wunderground v.1.15,2015-03-05 07:12:00,
2015-03-05 02:17:00,34.2,32.1,29.86,North,360,1.0,-999.0,92,0.00,,,0.06,0,Wunderground v.1.15,2015-03-05 07:17:00,
2015-03-05 02:22:00,34.1,32.0,29.87,NW,325,6.0,-999.0,92,0.00,,,0.06,0,Wunderground v.1.15,2015-03-05 07:22:00,
2015-03-05 02:27:00,33.9,31.8,29.87,West,276,2.0,-999.0,92,0.00,,,0.06,0,Wunderground v.1.15,2015-03-05 07:27:00,
2015-03-05 02:32:00,33.6,31.3,29.86,NNW,338,9.0,-999.0,91,0.00,,,0.06,0,Wunderground v.1.15,2015-03-05 07:32:00,
2015-03-05 02:37:00,33.3,31.0,29.87,NNW,336,5.0,-999.0,91,0.00,,,0.06,0,Wunderground v.1.15,2015-03-05 07:37:00,
2015-03-05 02:42:00,33.1,30.8,29.87,NW,324,1.0,-999.0,91,0.00,,,0.06,0,Wunderground v.1.15,2015-03-05 07:42:00,
2015-03-05 02:47:00,32.9,30.6,29.87,North,360,2.0,-999.0,91,0.00,,,0.06,0,Wunderground v.1.15,2015-03-05 07:47:00,
2015-03-05 02:52:00,32.8,30.5,29.87,North,360,1.0,-999.0,91,0.00,,,0.06,0,Wunderground v.1.15,2015-03-05 07:52:00,
2015-03-05 02:57:00,32.7,30.4,29.86,North,355,6.0,-999.0,91,0.00,,,0.06,0,Wunderground v.1.15,2015-03-05 07:57:00,
2015-03-05 03:02:00,32.6,30.5,29.87,WNW,292,2.0,-999.0,92,0.00,,,0.06,0,Wunderground v.1.15,2015-03-05 08:02:00,
2015-03-05 03:07:00,32.5,30.4,29.87,NNE,21,1.0,-999.0,92,0.00,,,0.06,0,Wunderground v.1.15,2015-03-05 08:07:00,
2015-03-05 03:12:00,32.5,30.4,29.87,NNW,331,0.0,-999.0,92,0.00,,,0.06,0,Wunderground v.1.15,2015-03-05 08:12:00,
2015-03-05 03:17:00,32.5,30.4,29.86,NNW,342,0.0,-999.0,92,0.00,,,0.06,0,Wunderground v.1.15,2015-03-05 08:17:00,
2015-03-05 03:22:00,32.4,30.3,29.86,NNW,348,0.0,-999.0,92,0.00,,,0.06,0,Wunderground v.1.15,2015-03-05 08:22:00,
2015-03-05 03:27:00,32.3,30.2,29.86,NW,311,0.0,-999.0,92,0.00,,,0.06,0,Wunderground v.1.15,2015-03-05 08:27:00,
2015-03-05 03:32:00,32.1,29.8,29.85,NW,321,3.0,-999.0,91,0.00,,,0.06,0,Wunderground v.1.15,2015-03-05 08:32:00,
2015-03-05 03:37:00,32.2,29.6,29.85,NNW,331,4.0,-999.0,90,0.00,,,0.06,0,Wunderground v.1.15,2015-03-05 08:37:00,
2015-03-05 03:42:00,32.2,29.6,29.85,North,355,0.0,-999.0,90,0.00,,,0.06,0,Wunderground v.1.15,2015-03-05 08:42:00,
2015-03-05 03:47:00,32.2,29.3,29.85,NW,314,0.0,-999.0,89,0.00,,,0.06,0,Wunderground v.1.15,2015-03-05 08:47:00,
2015-03-05 03:52:00,32.3,29.4,29.87,NW,311,1.0,-999.0,89,0.00,,,0.06,0,Wunderground v.1.15,2015-03-05 08:52:00,
2015-03-05 03:57:00,32.3,29.1,29.88,NW,309,2.0,-999.0,88,0.00,,,0.06,0,Wunderground v.1.15,2015-03-05 08:57:00,
2015-03-05 04:02:00,32.3,29.1,29.88,NW,315,0.0,-999.0,88,0.00,,,0.06,0,Wunderground v.1.15,2015-03-05 09:02:00,
2015-03-05 04:07:00,32.4,29.0,29.89,West,259,1.0,-999.0,87,0.00,,,0.06,0,Wunderground v.1.15,2015-03-05 09:07:00,
2015-03-05 04:12:00,32.4,28.7,29.89,NW,324,2.0,-999.0,86,0.00,,,0.06,0,Wunderground v.1.15,2015-03-05 09:12:00,
2015-03-05 04:17:00,32.5,28.5,29.90,NW,315,0.0,-999.0,85,0.00,,,0.06,0,Wunderground v.1.15,2015-03-05 09:17:00,
2015-03-05 04:22:00,32.5,28.2,29.90,WNW,286,1.0,-999.0,84,0.00,,,0.06,0,Wunderground v.1.15,2015-03-05 09:22:00,
2015-03-05 04:27:00,32.5,27.9,29.91,NW,320,4.0,-999.0,83,0.00,,,0.06,0,Wunderground v.1.15,2015-03-05 09:27:00,
2015-03-05 04:32:00,32.6,27.7,29.91,WNW,297,0.0,-999.0,82,0.00,,,0.06,0,Wunderground v.1.15,2015-03-05 09:32:00,
2015-03-05 04:37:00,32.6,27.4,29.92,NE,56,4.0,-999.0,81,0.00,,,0.06,0,Wunderground v.1.15,2015-03-05 09:37:00,
2015-03-05 04:42:00,32.5,27.3,29.92,NNW,335,4.0,-999.0,81,0.00,,,0.06,0,Wunderground v.1.15,2015-03-05 09:42:00,
2015-03-05 04:47:00,32.3,27.1,29.92,NNW,348,5.0,-999.0,81,0.00,,,0.06,0,Wunderground v.1.15,2015-03-05 09:47:00,
2015-03-05 04:52:00,32.0,27.4,29.93,NW,313,6.0,-999.0,83,0.00,,,0.06,0,Wunderground v.1.15,2015-03-05 09:52:00,
2015-03-05 04:57:00,31.7,27.4,29.93,NNW,342,4.0,-999.0,84,0.00,,,0.06,0,Wunderground v.1.15,2015-03-05 09:57:00,
2015-03-05 05:02:00,31.5,27.5,29.93,West,269,7.0,-999.0,85,0.00,,,0.06,0,Wunderground v.1.15,2015-03-05 10:02:00,
2015-03-05 05:07:00,31.3,27.3,29.93,NNW,329,0.0,-999.0,85,0.00,,,0.06,0,Wunderground v.1.15,2015-03-05 10:07:00,
2015-03-05 05:12:00,31.2,27.5,29.93,NW,313,6.0,-999.0,86,0.00,,,0.06,0,Wunderground v.1.15,2015-03-05 10:12:00,
2015-03-05 05:17:00,31.1,27.7,29.92,NNE,27,6.0,-999.0,87,0.00,,,0.06,0,Wunderground v.1.15,2015-03-05 10:17:00,
2015-03-05 05:22:00,31.0,27.6,29.93,North,360,5.0,-999.0,87,0.00,,,0.06,0,Wunderground v.1.15,2015-03-05 10:22:00,
2015-03-05 05:27:00,30.9,27.5,29.93,NNE,14,1.0,-999.0,87,0.00,,,0.06,0,Wunderground v.1.15,2015-03-05 10:27:00,
2015-03-05 05:32:00,30.8,27.4,29.93,North,355,2.0,-999.0,87,0.00,,,0.06,0,Wunderground v.1.15,2015-03-05 10:32:00,
2015-03-05 05:37:00,30.6,27.5,29.93,NNE,15,4.0,-999.0,88,0.00,,,0.06,0,Wunderground v.1.15,2015-03-05 10:37:00,
2015-03-05 05:42:00,30.6,27.5,29.93,NNE,21,0.0,-999.0,88,0.00,,,0.06,0,Wunderground v.1.15,2015-03-05 10:42:00,
2015-03-05 05:47:00,30.5,27.4,29.93,NNE,20,1.0,-999.0,88,0.00,,,0.06,0,Wunderground v.1.15,2015-03-05 10:47:00,
2015-03-05 05:52:00,30.4,27.5,29.94,NNE,13,0.0,-999.0,89,0.00,,,0.06,0,Wunderground v.1.15,2015-03-05 10:52:00,
2015-03-05 05:57:00,30.3,27.4,29.93,NW,322,2.0,-999.0,89,0.00,,,0.06,0,Wunderground v.1.15,2015-03-05 10:57:00,
2015-03-05 06:02:00,30.2,27.3,29.93,North,355,1.0,-999.0,89,0.00,,,0.06,0,Wunderground v.1.15,2015-03-05 11:02:00,
2015-03-05 06:07:00,30.1,27.3,29.93,North,5,6.0,-999.0,89,0.00,,,0.06,0,Wunderground v.1.15,2015-03-05 11:07:00,
2015-03-05 06:12:00,30.1,27.5,29.93,North,360,0.0,-999.0,90,0.00,,,0.06,0,Wunderground v.1.15,2015-03-05 11:12:00,
2015-03-05 06:17:00,30.1,27.5,29.94,NNW,348,4.0,-999.0,90,0.00,,,0.06,0,Wunderground v.1.15,2015-03-05 11:17:00,
2015-03-05 06:22:00,30.0,27.4,29.94,WNW,286,4.0,-999.0,90,0.00,,,0.06,0,Wunderground v.1.15,2015-03-05 11:22:00,
2015-03-05 06:27:00,30.0,27.4,29.94,NW,304,0.0,-999.0,90,0.00,,,0.06,0,Wunderground v.1.15,2015-03-05 11:27:00,
2015-03-05 06:32:00,30.0,27.4,29.94,NW,310,0.0,-999.0,90,0.00,,,0.06,0,Wunderground v.1.15,2015-03-05 11:32:00,
2015-03-05 06:37:00,30.0,27.4,29.96,NW,321,0.0,-999.0,90,0.00,,,0.06,0,Wunderground v.1.15,2015-03-05 11:37:00,
2015-03-05 06:42:00,30.0,27.4,29.96,North,5,1.0,-999.0,90,0.00,,,0.06,0,Wunderground v.1.15,2015-03-05 11:42:00,
2015-03-05 06:47:00,30.0,27.4,29.96,NNE,15,0.0,-999.0,90,0.00,,,0.06,0,Wunderground v.1.15,2015-03-05 11:47:00,
2015-03-05 06:52:00,30.0,27.4,29.97,North,350,1.0,-999.0,90,0.00,,,0.06,0,Wunderground v.1.15,2015-03-05 11:52:00,
2015-03-05 06:57:00,30.0,27.2,29.98,NNW,340,4.0,-999.0,89,0.00,,,0.06,0,Wunderground v.1.15,2015-03-05 11:57:00,
2015-03-05 07:02:00,29.9,27.3,29.99,NNE,27,1.0,-999.0,90,0.00,,,0.06,0,Wunderground v.1.15,2015-03-05 12:02:00,
2015-03-05 07:07:00,29.3,26.7,29.97,East,84,8.0,-999.0,90,0.00,,,0.06,7,Wunderground v.1.15,2015-03-05 12:07:00,
2015-03-05 07:12:00,29.0,26.7,29.97,North,360,4.0,-999.0,91,0.00,,,0.06,7,Wunderground v.1.15,2015-03-05 12:12:00,
2015-03-05 07:17:00,28.8,26.5,29.99,NE,49,2.0,-999.0,91,0.00,,,0.06,7,Wunderground v.1.15,2015-03-05 12:17:00,
2015-03-05 07:22:00,28.7,26.4,29.99,NNE,12,0.0,-999.0,91,0.00,,,0.06,12,Wunderground v.1.15,2015-03-05 12:22:00,
2015-03-05 07:27:00,28.4,26.1,30.00,NNE,31,6.0,-999.0,91,0.00,,,0.06,14,Wunderground v.1.15,2015-03-05 12:27:00,
2015-03-05 07:32:00,28.0,25.4,30.00,NNE,32,8.0,-999.0,90,0.00,,,0.06,14,Wunderground v.1.15,2015-03-05 12:32:00,
2015-03-05 07:37:00,27.5,25.0,30.01,NNE,21,6.0,-999.0,90,0.00,,,0.06,12,Wunderground v.1.15,2015-03-05 12:37:00,
2015-03-05 07:42:00,27.2,24.7,30.01,ENE,63,6.0,-999.0,90,0.00,,,0.06,16,Wunderground v.1.15,2015-03-05 12:42:00,
2015-03-05 07:47:00,26.8,24.3,30.02,North,355,4.0,-999.0,90,0.00,,,0.06,18,Wunderground v.1.15,2015-03-05 12:47:00,
2015-03-05 07:52:00,26.5,24.0,30.01,NNE,15,7.0,-999.0,90,0.00,,,0.06,18,Wunderground v.1.15,2015-03-05 12:52:00,
2015-03-05 07:57:00,26.3,24.0,30.02,NNE,31,6.0,-999.0,91,0.00,,,0.06,23,Wunderground v.1.15,2015-03-05 12:57:00,
2015-03-05 08:02:00,26.2,23.9,30.02,NNE,29,7.0,-999.0,91,0.00,,,0.06,21,Wunderground v.1.15,2015-03-05 13:02:00,
2015-03-05 08:07:00,26.0,23.7,30.02,NE,42,7.0,-999.0,91,0.00,,,0.06,25,Wunderground v.1.15,2015-03-05 13:07:00,
2015-03-05 08:12:00,25.9,23.9,30.02,NNW,340,5.0,-999.0,92,0.00,,,0.06,26,Wunderground v.1.15,2015-03-05 13:12:00,
2015-03-05 08:17:00,25.7,23.4,30.03,North,9,4.0,-999.0,91,0.00,,,0.06,33,Wunderground v.1.15,2015-03-05 13:17:00,
2015-03-05 08:22:00,25.6,23.6,30.03,North,11,7.0,-999.0,92,0.00,,,0.06,44,Wunderground v.1.15,2015-03-05 13:22:00,
2015-03-05 08:27:00,25.5,23.5,30.04,North,355,8.0,-999.0,92,0.00,,,0.06,40,Wunderground v.1.15,2015-03-05 13:27:00,
2015-03-05 08:32:00,25.2,23.2,30.05,North,5,2.0,-999.0,92,0.00,,,0.06,39,Wunderground v.1.15,2015-03-05 13:32:00,
2015-03-05 08:37:00,25.0,23.0,30.06,North,9,5.0,-999.0,92,0.00,,,0.06,42,Wunderground v.1.15,2015-03-05 13:37:00,
2015-03-05 08:42:00,25.1,23.1,30.06,ENE,68,6.0,-999.0,92,0.00,,,0.06,40,Wunderground v.1.15,2015-03-05 13:42:00,
2015-03-05 08:47:00,25.1,23.1,30.06,NE,34,2.0,-999.0,92,0.00,,,0.06,47,Wunderground v.1.15,2015-03-05 13:47:00,
2015-03-05 08:52:00,24.9,22.9,30.06,NNE,25,4.0,-999.0,92,0.00,,,0.06,49,Wunderground v.1.15,2015-03-05 13:52:00,
2015-03-05 08:57:00,24.8,22.8,30.05,NE,44,4.0,-999.0,92,0.00,,,0.06,54,Wunderground v.1.15,2015-03-05 13:57:00,
2015-03-05 09:02:00,24.7,22.7,30.05,North,355,2.0,-999.0,92,0.00,,,0.06,47,Wunderground v.1.15,2015-03-05 14:02:00,
2015-03-05 09:07:00,24.7,23.0,30.06,North,355,4.0,-999.0,93,0.00,,,0.06,47,Wunderground v.1.15,2015-03-05 14:07:00,
2015-03-05 09:12:00,24.6,22.6,30.06,North,355,5.0,-999.0,92,0.00,,,0.06,69,Wunderground v.1.15,2015-03-05 14:12:00,
2015-03-05 09:17:00,24.6,22.6,30.07,NNW,338,0.0,-999.0,92,0.00,,,0.06,72,Wunderground v.1.15,2015-03-05 14:17:00,
2015-03-05 09:22:00,24.7,22.7,30.07,WNW,298,2.0,-999.0,92,0.00,,,0.06,65,Wunderground v.1.15,2015-03-05 14:22:00,
2015-03-05 09:27:00,24.7,22.7,30.07,NW,314,4.0,-999.0,92,0.00,,,0.06,62,Wunderground v.1.15,2015-03-05 14:27:00,
2015-03-05 09:32:00,24.3,22.3,30.08,NW,311,4.0,-999.0,92,0.00,,,0.06,63,Wunderground v.1.15,2015-03-05 14:32:00,
2015-03-05 09:37:00,24.1,22.1,30.08,North,350,1.0,-999.0,92,0.00,,,0.06,62,Wunderground v.1.15,2015-03-05 14:37:00,
2015-03-05 09:42:00,23.8,21.6,30.08,North,355,8.0,-999.0,91,0.00,,,0.06,58,Wunderground v.1.15,2015-03-05 14:42:00,
2015-03-05 09:47:00,23.5,21.3,30.07,NNE,13,8.0,-999.0,91,0.00,,,0.06,69,Wunderground v.1.15,2015-03-05 14:47:00,
2015-03-05 09:52:00,23.4,21.2,30.07,North,9,5.0,-999.0,91,0.00,,,0.06,81,Wunderground v.1.15,2015-03-05 14:52:00,
2015-03-05 09:57:00,23.2,20.7,30.08,NNW,331,4.0,-999.0,90,0.00,,,0.06,81,Wunderground v.1.15,2015-03-05 14:57:00,
2015-03-05 10:02:00,23.1,20.9,30.08,North,5,5.0,-999.0,91,0.00,,,0.06,83,Wunderground v.1.15,2015-03-05 15:02:00,
2015-03-05 10:07:00,23.1,20.9,30.08,NNW,342,5.0,-999.0,91,0.00,,,0.06,70,Wunderground v.1.15,2015-03-05 15:07:00,
2015-03-05 10:12:00,23.0,20.8,30.08,North,355,1.0,-999.0,91,0.00,,,0.06,69,Wunderground v.1.15,2015-03-05 15:12:00,
2015-03-05 10:17:00,22.9,20.7,30.08,NNW,327,4.0,-999.0,91,0.00,,,0.06,76,Wunderground v.1.15,2015-03-05 15:17:00,
2015-03-05 10:22:00,22.5,20.3,30.08,NW,323,5.0,-999.0,91,0.00,,,0.06,88,Wunderground v.1.15,2015-03-05 15:22:00,
2015-03-05 10:27:00,21.9,19.4,30.08,NW,325,4.0,-999.0,90,0.00,,,0.06,93,Wunderground v.1.15,2015-03-05 15:27:00,
2015-03-05 10:32:00,21.6,19.1,30.08,NNW,335,7.0,-999.0,90,0.00,,,0.06,111,Wunderground v.1.15,2015-03-05 15:32:00,
2015-03-05 10:37:00,21.5,19.0,30.07,North,5,1.0,-999.0,90,0.00,,,0.06,121,Wunderground v.1.15,2015-03-05 15:37:00,
2015-03-05 10:42:00,21.5,19.3,30.07,NW,308,0.0,-999.0,91,0.00,,,0.06,114,Wunderground v.1.15,2015-03-05 15:42:00,
2015-03-05 10:47:00,21.4,18.9,30.08,WNW,286,1.0,-999.0,90,0.00,,,0.06,93,Wunderground v.1.15,2015-03-05 15:47:00,
2015-03-05 10:52:00,21.3,18.8,30.07,NNW,331,1.0,-999.0,90,0.00,,,0.06,93,Wunderground v.1.15,2015-03-05 15:52:00,
2015-03-05 10:57:00,21.3,18.8,30.06,North,355,1.0,-999.0,90,0.00,,,0.06,88,Wunderground v.1.15,2015-03-05 15:57:00,
2015-03-05 11:02:00,21.3,18.8,30.06,NNW,348,8.0,-999.0,90,0.00,,,0.06,95,Wunderground v.1.15,2015-03-05 16:02:00,
2015-03-05 11:07:00,20.8,18.3,30.06,NW,316,3.0,-999.0,90,0.00,,,0.06,111,Wunderground v.1.15,2015-03-05 16:07:00,
2015-03-05 11:12:00,20.7,18.2,30.06,North,5,4.0,-999.0,90,0.00,,,0.06,104,Wunderground v.1.15,2015-03-05 16:12:00,
2015-03-05 11:17:00,20.7,18.2,30.06,NNW,332,0.0,-999.0,90,0.00,,,0.06,107,Wunderground v.1.15,2015-03-05 16:17:00,
2015-03-05 11:22:00,20.9,18.7,30.06,WNW,293,0.0,-999.0,91,0.00,,,0.06,95,Wunderground v.1.15,2015-03-05 16:22:00,
2015-03-05 11:27:00,21.1,18.9,30.08,WNW,299,1.0,-999.0,91,0.00,,,0.06,97,Wunderground v.1.15,2015-03-05 16:27:00,
2015-03-05 11:32:00,21.0,18.5,30.08,NW,318,0.0,-999.0,90,0.00,,,0.06,97,Wunderground v.1.15,2015-03-05 16:32:00,
2015-03-05 11:37:00,21.1,18.6,30.08,WSW,242,0.0,-999.0,90,0.00,,,0.06,83,Wunderground v.1.15,2015-03-05 16:37:00,
2015-03-05 11:42:00,21.3,18.8,30.08,WSW,241,0.0,-999.0,90,0.00,,,0.06,65,Wunderground v.1.15,2015-03-05 16:42:00,
2015-03-05 11:47:00,21.2,18.5,30.08,NNW,327,0.0,-999.0,89,0.00,,,0.06,56,Wunderground v.1.15,2015-03-05 16:47:00,
2015-03-05 11:52:00,21.2,18.2,30.08,WNW,298,0.0,-999.0,88,0.00,,,0.06,58,Wunderground v.1.15,2015-03-05 16:52:00,
2015-03-05 11:57:00,21.3,18.3,30.08,SW,234,1.0,-999.0,88,0.00,,,0.06,63,Wunderground v.1.15,2015-03-05 16:57:00,
2015-03-05 12:02:00,21.4,18.4,30.09,SW,232,0.0,-999.0,88,0.00,,,0.06,60,Wunderground v.1.15,2015-03-05 17:02:00,
2015-03-05 12:07:00,21.5,18.2,30.09,SW,216,1.0,-999.0,87,0.00,,,0.06,62,Wunderground v.1.15,2015-03-05 17:07:00,
2015-03-05 12:12:00,21.6,18.1,30.10,SSW,211,0.0,-999.0,86,0.00,,,0.06,67,Wunderground v.1.15,2015-03-05 17:12:00,
2015-03-05 12:17:00,21.7,18.2,30.10,SSW,211,0.0,-999.0,86,0.00,,,0.06,74,Wunderground v.1.15,2015-03-05 17:17:00,
2015-03-05 12:22:00,21.8,18.0,30.10,SSW,207,0.0,-999.0,85,0.00,,,0.06,81,Wunderground v.1.15,2015-03-05 17:22:00,
2015-03-05 12:27:00,21.9,18.1,30.10,SW,217,1.0,-999.0,85,0.00,,,0.06,86,Wunderground v.1.15,2015-03-05 17:27:00,
2015-03-05 12:32:00,22.0,17.3,30.10,West,275,1.0,-999.0,82,0.00,,,0.06,93,Wunderground v.1.15,2015-03-05 17:32:00,
2015-03-05 12:37:00,21.8,16.6,30.10,WSW,242,2.0,-999.0,80,0.00,,,0.06,86,Wunderground v.1.15,2015-03-05 17:37:00,
2015-03-05 12:42:00,21.3,15.5,30.09,NNE,31,5.0,-999.0,78,0.00,,,0.06,88,Wunderground v.1.15,2015-03-05 17:42:00,
2015-03-05 12:47:00,21.2,15.7,30.08,NW,315,2.0,-999.0,79,0.00,,,0.06,100,Wunderground v.1.15,2015-03-05 17:47:00,
2015-03-05 12:52:00,21.3,15.5,30.08,WNW,300,1.0,-999.0,78,0.00,,,0.06,113,Wunderground v.1.15,2015-03-05 17:52:00,
2015-03-05 12:57:00,21.5,15.4,30.08,WNW,302,0.0,-999.0,77,0.00,,,0.06,118,Wunderground v.1.15,2015-03-05 17:57:00,
2015-03-05 13:02:00,21.7,15.0,30.08,West,281,1.0,-999.0,75,0.00,,,0.06,127,Wunderground v.1.15,2015-03-05 18:02:00,
2015-03-05 13:07:00,22.1,14.8,30.08,West,267,1.0,-999.0,73,0.00,,,0.06,135,Wunderground v.1.15,2015-03-05 18:07:00,
2015-03-05 13:12:00,22.4,14.4,30.08,WNW,302,5.0,-999.0,71,0.00,,,0.06,130,Wunderground v.1.15,2015-03-05 18:12:00,
2015-03-05 13:17:00,22.4,13.1,30.08,NNW,329,4.0,-999.0,67,0.00,,,0.06,128,Wunderground v.1.15,2015-03-05 18:17:00,
2015-03-05 13:22:00,22.5,12.8,30.08,NW,309,5.0,-999.0,66,0.00,,,0.06,116,Wunderground v.1.15,2015-03-05 18:22:00,
2015-03-05 13:27:00,22.5,12.1,30.08,NNW,344,6.0,-999.0,64,0.00,,,0.06,113,Wunderground v.1.15,2015-03-05 18:27:00,
2015-03-05 13:32:00,22.6,12.6,30.08,NW,305,2.0,-999.0,65,0.00,,,0.06,113,Wunderground v.1.15,2015-03-05 18:32:00,
2015-03-05 13:37:00,22.6,12.2,30.08,West,276,0.0,-999.0,64,0.00,,,0.06,139,Wunderground v.1.15,2015-03-05 18:37:00,
2015-03-05 13:42:00,22.8,12.8,30.06,NNW,338,1.0,-999.0,65,0.00,,,0.06,146,Wunderground v.1.15,2015-03-05 18:42:00,
2015-03-05 13:47:00,22.9,12.2,30.07,NW,314,3.0,-999.0,63,0.00,,,0.06,127,Wunderground v.1.15,2015-03-05 18:47:00,
2015-03-05 13:52:00,23.0,12.3,30.08,NW,325,2.0,-999.0,63,0.00,,,0.06,132,Wunderground v.1.15,2015-03-05 18:52:00,
2015-03-05 13:57:00,23.0,11.5,30.07,West,278,1.0,-999.0,61,0.00,,,0.06,123,Wunderground v.1.15,2015-03-05 18:57:00,
2015-03-05 14:02:00,22.9,12.2,30.07,North,349,0.0,-999.0,63,0.00,,,0.06,128,Wunderground v.1.15,2015-03-05 19:02:00,
2015-03-05 14:07:00,22.8,10.6,30.07,NW,325,2.0,-999.0,59,0.00,,,0.06,120,Wunderground v.1.15,2015-03-05 19:07:00,
2015-03-05 14:12:00,22.6,10.4,30.08,NW,319,0.0,-999.0,59,0.00,,,0.06,118,Wunderground v.1.15,2015-03-05 19:12:00,
2015-03-05 14:17:00,22.6,10.8,30.09,NW,321,4.0,-999.0,60,0.00,,,0.06,113,Wunderground v.1.15,2015-03-05 19:17:00,
2015-03-05 14:22:00,22.5,11.1,30.09,NW,325,2.0,-999.0,61,0.00,,,0.06,107,Wunderground v.1.15,2015-03-05 19:22:00,
2015-03-05 14:27:00,22.1,11.1,30.11,WNW,302,3.0,-999.0,62,0.00,,,0.06,95,Wunderground v.1.15,2015-03-05 19:27:00,
2015-03-05 14:32:00,22.0,11.3,30.10,West,279,0.0,-999.0,63,0.00,,,0.06,90,Wunderground v.1.15,2015-03-05 19:32:00,
2015-03-05 14:37:00,21.8,11.5,30.11,NW,309,2.0,-999.0,64,0.00,,,0.06,93,Wunderground v.1.15,2015-03-05 19:37:00,
2015-03-05 14:42:00,21.6,12.3,30.10,NNE,24,4.0,-999.0,67,0.00,,,0.06,97,Wunderground v.1.15,2015-03-05 19:42:00,
2015-03-05 14:47:00,21.3,12.0,30.11,North,355,8.0,-999.0,67,0.00,,,0.06,91,Wunderground v.1.15,2015-03-05 19:47:00,
2015-03-05 14:52:00,20.7,12.8,30.10,WNW,297,2.0,-999.0,71,0.00,,,0.06,88,Wunderground v.1.15,2015-03-05 19:52:00,
2015-03-05 14:57:00,20.6,13.0,30.10,NNW,340,2.0,-999.0,72,0.00,,,0.06,91,Wunderground v.1.15,2015-03-05 19:57:00,
2015-03-05 15:02:00,20.5,13.5,30.11,North,360,7.0,-999.0,74,0.00,,,0.06,77,Wunderground v.1.15,2015-03-05 20:02:00,
2015-03-05 15:07:00,20.4,13.7,30.11,NNW,342,1.0,-999.0,75,0.00,,,0.06,72,Wunderground v.1.15,2015-03-05 20:07:00,
2015-03-05 15:12:00,20.2,13.8,30.11,WNW,302,2.0,-999.0,76,0.00,,,0.06,63,Wunderground v.1.15,2015-03-05 20:12:00,
2015-03-05 15:17:00,19.8,14.0,30.12,WNW,290,3.0,-999.0,78,0.00,,,0.06,56,Wunderground v.1.15,2015-03-05 20:17:00,
2015-03-05 15:22:00,19.4,14.2,30.12,NNW,346,6.0,-999.0,80,0.00,,,0.06,54,Wunderground v.1.15,2015-03-05 20:22:00,
2015-03-05 15:27:00,19.2,14.3,30.12,West,264,2.0,-999.0,81,0.00,,,0.06,53,Wunderground v.1.15,2015-03-05 20:27:00,
2015-03-05 15:32:00,19.0,14.4,30.12,NW,306,0.0,-999.0,82,0.00,,,0.06,54,Wunderground v.1.15,2015-03-05 20:32:00,
2015-03-05 15:37:00,19.0,14.7,30.12,NW,321,3.0,-999.0,83,0.00,,,0.06,46,Wunderground v.1.15,2015-03-05 20:37:00,
2015-03-05 15:42:00,18.9,14.6,30.11,North,9,1.0,-999.0,83,0.00,,,0.06,46,Wunderground v.1.15,2015-03-05 20:42:00,
2015-03-05 15:47:00,18.9,14.9,30.12,NNE,16,1.0,-999.0,84,0.00,,,0.06,46,Wunderground v.1.15,2015-03-05 20:47:00,
2015-03-05 15:52:00,18.9,14.9,30.13,WNW,302,1.0,-999.0,84,0.00,,,0.06,53,Wunderground v.1.15,2015-03-05 20:52:00,
2015-03-05 15:57:00,19.0,15.0,30.12,WNW,302,0.0,-999.0,84,0.00,,,0.06,53,Wunderground v.1.15,2015-03-05 20:57:00,
2015-03-05 16:02:00,19.0,14.7,30.13,NW,304,0.0,-999.0,83,0.00,,,0.06,49,Wunderground v.1.15,2015-03-05 21:02:00,
2015-03-05 16:07:00,19.1,14.5,30.13,WNW,302,0.0,-999.0,82,0.00,,,0.06,63,Wunderground v.1.15,2015-03-05 21:07:00,
2015-03-05 16:12:00,19.3,14.7,30.13,NW,310,0.0,-999.0,82,0.00,,,0.06,67,Wunderground v.1.15,2015-03-05 21:12:00,
2015-03-05 16:17:00,19.5,14.9,30.12,NW,326,0.0,-999.0,82,0.00,,,0.06,70,Wunderground v.1.15,2015-03-05 21:17:00,
2015-03-05 16:22:00,19.7,14.8,30.13,NNW,344,0.0,-999.0,81,0.00,,,0.06,58,Wunderground v.1.15,2015-03-05 21:22:00,
2015-03-05 16:27:00,19.8,14.9,30.13,NNW,344,0.0,-999.0,81,0.00,,,0.06,47,Wunderground v.1.15,2015-03-05 21:27:00,
2015-03-05 16:32:00,19.9,15.0,30.14,NNW,346,0.0,-999.0,81,0.00,,,0.06,39,Wunderground v.1.15,2015-03-05 21:32:00,
2015-03-05 16:37:00,19.9,14.7,30.13,NNW,346,0.0,-999.0,80,0.00,,,0.06,33,Wunderground v.1.15,2015-03-05 21:37:00,
2015-03-05 16:42:00,20.0,14.8,30.14,NNW,344,0.0,-999.0,80,0.00,,,0.06,30,Wunderground v.1.15,2015-03-05 21:42:00,
2015-03-05 16:47:00,20.0,13.9,30.14,NNW,338,0.0,-999.0,77,0.00,,,0.06,28,Wunderground v.1.15,2015-03-05 21:47:00,
2015-03-05 16:52:00,20.0,13.6,30.14,NNW,327,0.0,-999.0,76,0.00,,,0.06,25,Wunderground v.1.15,2015-03-05 21:52:00,
2015-03-05 16:57:00,20.0,13.6,30.14,NW,326,0.0,-999.0,76,0.00,,,0.06,19,Wunderground v.1.15,2015-03-05 21:57:00,
2015-03-05 17:02:00,20.0,13.9,30.14,NW,326,0.0,-999.0,77,0.00,,,0.06,19,Wunderground v.1.15,2015-03-05 22:02:00,
2015-03-05 17:07:00,20.0,13.9,30.15,NW,326,0.0,-999.0,77,0.00,,,0.06,16,Wunderground v.1.15,2015-03-05 22:07:00,
2015-03-05 17:12:00,20.0,13.6,30.15,NNW,341,0.0,-999.0,76,0.00,,,0.06,18,Wunderground v.1.15,2015-03-05 22:12:00,
2015-03-05 17:17:00,19.9,12.9,30.14,NNE,24,1.0,-999.0,74,0.00,,,0.06,18,Wunderground v.1.15,2015-03-05 22:17:00,
2015-03-05 17:22:00,19.8,12.5,30.14,NW,309,0.0,-999.0,73,0.00,,,0.06,19,Wunderground v.1.15,2015-03-05 22:22:00,
2015-03-05 17:27:00,19.8,12.5,30.14,NW,309,0.0,-999.0,73,0.00,,,0.06,14,Wunderground v.1.15,2015-03-05 22:27:00,
2015-03-05 17:32:00,19.9,12.6,30.14,NW,325,0.0,-999.0,73,0.00,,,0.06,9,Wunderground v.1.15,2015-03-05 22:32:00,
2015-03-05 17:37:00,19.9,12.9,30.15,NW,325,0.0,-999.0,74,0.00,,,0.06,5,Wunderground v.1.15,2015-03-05 22:37:00,
2015-03-05 17:42:00,19.9,12.9,30.17,NW,321,0.0,-999.0,74,0.00,,,0.06,0,Wunderground v.1.15,2015-03-05 22:42:00,
2015-03-05 17:47:00,20.0,13.0,30.16,NW,321,0.0,-999.0,74,0.00,,,0.06,0,Wunderground v.1.15,2015-03-05 22:47:00,
2015-03-05 17:52:00,20.0,12.4,30.17,NW,320,0.0,-999.0,72,0.00,,,0.06,0,Wunderground v.1.15,2015-03-05 22:52:00,
2015-03-05 17:57:00,20.1,13.1,30.17,NW,320,0.0,-999.0,74,0.00,,,0.06,0,Wunderground v.1.15,2015-03-05 22:57:00,
2015-03-05 18:02:00,20.1,12.8,30.17,NW,320,0.0,-999.0,73,0.00,,,0.06,0,Wunderground v.1.15,2015-03-05 23:02:00,
2015-03-05 18:07:00,20.1,12.8,30.18,NW,320,0.0,-999.0,73,0.00,,,0.06,0,Wunderground v.1.15,2015-03-05 23:07:00,
2015-03-05 18:12:00,20.2,12.3,30.17,NW,320,1.0,-999.0,71,0.00,,,0.06,0,Wunderground v.1.15,2015-03-05 23:12:00,
2015-03-05 18:17:00,20.2,12.0,30.19,NW,320,1.0,-999.0,70,0.00,,,0.06,0,Wunderground v.1.15,2015-03-05 23:17:00,
2015-03-05 18:22:00,20.2,11.7,30.18,West,265,0.0,-999.0,69,0.00,,,0.06,0,Wunderground v.1.15,2015-03-05 23:22:00,
2015-03-05 18:27:00,20.2,11.0,30.19,West,262,1.0,-999.0,67,0.00,,,0.06,0,Wunderground v.1.15,2015-03-05 23:27:00,
2015-03-05 18:32:00,20.2,10.3,30.19,NW,313,2.0,-999.0,65,0.00,,,0.06,0,Wunderground v.1.15,2015-03-05 23:32:00,
2015-03-05 18:37:00,20.2,9.6,30.19,NNW,328,0.0,-999.0,63,0.00,,,0.06,0,Wunderground v.1.15,2015-03-05 23:37:00,
2015-03-05 18:42:00,20.2,9.6,30.19,NNW,335,2.0,-999.0,63,0.00,,,0.06,0,Wunderground v.1.15,2015-03-05 23:42:00,
2015-03-05 18:47:00,20.2,8.5,30.19,NW,306,1.0,-999.0,60,0.00,,,0.06,0,Wunderground v.1.15,2015-03-05 23:47:00,
2015-03-05 18:52:00,20.1,8.1,30.20,North,5,4.0,-999.0,59,0.00,,,0.06,0,Wunderground v.1.15,2015-03-05 23:52:00,
2015-03-05 18:57:00,20.1,7.7,30.21,WNW,285,2.0,-999.0,58,0.00,,,0.06,0,Wunderground v.1.15,2015-03-05 23:57:00,
2015-03-05 19:02:00,20.0,8.0,30.20,NNW,328,5.0,-999.0,59,0.00,,,0.06,0,Wunderground v.1.15,2015-03-06 00:02:00,
2015-03-05 19:07:00,19.9,7.5,30.21,NNW,344,7.0,-999.0,58,0.00,,,0.06,0,Wunderground v.1.15,2015-03-06 00:07:00,
2015-03-05 19:12:00,19.9,7.1,30.21,NNW,329,5.0,-999.0,57,0.00,,,0.06,0,Wunderground v.1.15,2015-03-06 00:12:00,
2015-03-05 19:17:00,19.9,7.5,30.21,NW,319,3.0,-999.0,58,0.00,,,0.06,0,Wunderground v.1.15,2015-03-06 00:17:00,
2015-03-05 19:22:00,19.9,6.7,30.20,NW,309,2.0,-999.0,56,0.00,,,0.06,0,Wunderground v.1.15,2015-03-06 00:22:00,
2015-03-05 19:27:00,19.8,6.6,30.20,NW,311,0.0,-999.0,56,0.00,,,0.06,0,Wunderground v.1.15,2015-03-06 00:27:00,
2015-03-05 19:32:00,19.8,6.6,30.21,NNW,339,7.0,-999.0,56,0.00,,,0.06,0,Wunderground v.1.15,2015-03-06 00:32:00,
2015-03-05 19:37:00,19.7,6.1,30.22,NNW,327,5.0,-999.0,55,0.00,,,0.06,0,Wunderground v.1.15,2015-03-06 00:37:00,
2015-03-05 19:42:00,19.7,6.5,30.21,North,5,1.0,-999.0,56,0.00,,,0.06,0,Wunderground v.1.15,2015-03-06 00:42:00,
2015-03-05 19:47:00,19.6,6.4,30.22,WNW,288,3.0,-999.0,56,0.00,,,0.06,0,Wunderground v.1.15,2015-03-06 00:47:00,
2015-03-05 19:52:00,19.5,6.3,30.22,NNW,344,3.0,-999.0,56,0.00,,,0.06,0,Wunderground v.1.15,2015-03-06 00:52:00,
2015-03-05 19:57:00,19.5,6.7,30.22,NNW,347,0.0,-999.0,57,0.00,,,0.06,0,Wunderground v.1.15,2015-03-06 00:57:00,
2015-03-05 20:02:00,19.5,7.5,30.22,WNW,296,0.0,-999.0,59,0.00,,,0.06,0,Wunderground v.1.15,2015-03-06 01:02:00,
2015-03-05 20:08:00,19.4,7.0,30.22,WNW,294,2.0,-999.0,58,0.00,,,0.06,0,Wunderground v.1.15,2015-03-06 01:08:00,
2015-03-05 20:13:00,19.4,6.2,30.22,NNW,341,5.0,-999.0,56,0.00,,,0.06,0,Wunderground v.1.15,2015-03-06 01:13:00,
2015-03-05 20:18:00,19.3,5.7,30.23,NW,321,3.0,-999.0,55,0.00,,,0.06,0,Wunderground v.1.15,2015-03-06 01:18:00,
2015-03-05 20:23:00,19.3,6.5,30.23,NW,312,2.0,-999.0,57,0.00,,,0.06,0,Wunderground v.1.15,2015-03-06 01:23:00,
2015-03-05 20:28:00,19.2,6.1,30.23,WNW,302,1.0,-999.0,56,0.00,,,0.06,0,Wunderground v.1.15,2015-03-06 01:28:00,
2015-03-05 20:33:00,19.1,6.0,30.23,North,351,4.0,-999.0,56,0.00,,,0.06,0,Wunderground v.1.15,2015-03-06 01:33:00,
2015-03-05 20:38:00,19.0,6.3,30.24,North,355,0.0,-999.0,57,0.00,,,0.06,0,Wunderground v.1.15,2015-03-06 01:38:00,
2015-03-05 20:43:00,19.0,6.6,30.25,WNW,302,3.0,-999.0,58,0.00,,,0.06,0,Wunderground v.1.15,2015-03-06 01:43:00,
2015-03-05 20:48:00,18.9,5.8,30.25,NW,310,6.0,-999.0,56,0.00,,,0.06,0,Wunderground v.1.15,2015-03-06 01:48:00,
2015-03-05 20:53:00,18.8,5.3,30.25,NW,314,3.0,-999.0,55,0.00,,,0.06,0,Wunderground v.1.15,2015-03-06 01:53:00,
2015-03-05 20:58:00,18.7,5.6,30.26,NW,321,5.0,-999.0,56,0.00,,,0.06,0,Wunderground v.1.15,2015-03-06 01:58:00,
2015-03-05 21:03:00,18.6,5.1,30.26,North,355,2.0,-999.0,55,0.00,,,0.06,0,Wunderground v.1.15,2015-03-06 02:03:00,
2015-03-05 21:08:00,18.6,5.1,30.26,WNW,300,5.0,-999.0,55,0.00,,,0.06,0,Wunderground v.1.15,2015-03-06 02:08:00,
2015-03-05 21:13:00,18.5,5.0,30.26,WNW,291,1.0,-999.0,55,0.00,,,0.06,0,Wunderground v.1.15,2015-03-06 02:13:00,
2015-03-05 21:18:00,18.5,5.4,30.26,ENE,57,5.0,-999.0,56,0.00,,,0.06,0,Wunderground v.1.15,2015-03-06 02:18:00,
2015-03-05 21:23:00,18.4,5.7,30.27,North,5,3.0,-999.0,57,0.00,,,0.06,0,Wunderground v.1.15,2015-03-06 02:23:00,
2015-03-05 21:28:00,18.4,5.3,30.27,NW,307,3.0,-999.0,56,0.00,,,0.06,0,Wunderground v.1.15,2015-03-06 02:28:00,
2015-03-05 21:33:00,18.3,6.0,30.28,NNW,334,5.0,-999.0,58,0.00,,,0.06,0,Wunderground v.1.15,2015-03-06 02:33:00,
2015-03-05 21:38:00,18.2,5.9,30.29,WNW,299,9.0,-999.0,58,0.00,,,0.06,0,Wunderground v.1.15,2015-03-06 02:38:00,
2015-03-05 21:43:00,18.0,4.5,30.29,NNW,345,5.0,-999.0,55,0.00,,,0.06,0,Wunderground v.1.15,2015-03-06 02:43:00,
2015-03-05 21:48:00,17.9,4.8,30.29,WNW,297,7.0,-999.0,56,0.00,,,0.06,0,Wunderground v.1.15,2015-03-06 02:48:00,
2015-03-05 21:53:00,17.8,4.3,30.30,NW,319,1.0,-999.0,55,0.00,,,0.06,0,Wunderground v.1.15,2015-03-06 02:53:00,
2015-03-05 21:58:00,17.7,4.6,30.30,North,355,4.0,-999.0,56,0.00,,,0.06,0,Wunderground v.1.15,2015-03-06 02:58:00,